Penticton, British Columbia

10:22 AM PDT on June 28, 2017 (GMT -0700)
Penticton

Weather History for CYYF - October, 2011

Change the Weather History Date:

Friday, October 7, 2011

  Actual Average Record
Temperature  
Mean Temperature 52 °F -  
Max Temperature 61 °F 55 °F 71 °F (2002)
Min Temperature 42 °F 36 °F 28 °F (2000)
Degree Days  
Heating Degree Days 14    
Growing Degree Days 2 (Base 50)    
Moisture  
Dew Point 41 °F    
Average Humidity 67    
Maximum Humidity 93    
Minimum Humidity 37    
Precipitation  
Precipitation 0.02 in 0.02 in - ()
Sea Level Pressure  
Sea Level Pressure 30.02 in    
Wind  
Wind Speed 2 mph ()    
Max Wind Speed 20 mph    
Max Gust Speed -    
Visibility 15.0 miles    
Events Rain    
Averages and records for this station are not official NWS values.
T = Trace of Precipitation, MM = Missing Value Source: Averaged Metar Reports

Daily Weather History Graph

Daily Weather History Graph

Search for Another Location

Airport or City:

Trip Planner

Search our weather history database for the weather conditions in past years. The results will help you decide how hot, cold, wet, or windy it might be!

Date:

Astronomy

Oct. 07, 2011 Rise Set
Actual Time 7:07 AM PDT 6:24 PM PDT
Civil Twilight 6:35 AM PDT 6:56 PM PDT
Nautical Twilight 5:58 AM PDT 7:33 PM PDT
Astronomical Twilight 5:20 AM PDT 8:10 PM PDT
Moon 4:26 PM PDT (10/7) 2:40 AM PDT (10/7)
Length of Visible Light 12h 21m
Length of Day
11h 17m
Waxing Gibbous, 84% of the Moon is Illuminated
Oct 7
Waxing Gibbous
Oct 11
Full
Oct 19
Last Quarter
Oct 26
New
Nov 2
First Quarter

Hourly Weather History & Observations

Time (PDT) Temp. Windchill Dew Point Humidity Pressure Visibility Wind Dir Wind Speed Gust Speed Precip Events Conditions
12:00 AM 44.6 °F - 42.8 °F 93% 29.88 in 15.0 mi Calm Calm - N/A   Partly Cloudy
1:00 AM 42.8 °F 40.1 °F 39.2 °F 87% 29.89 in 15.0 mi NNW 4.6 mph - N/A   Scattered Clouds
2:00 AM 44.6 °F - 39.2 °F 81% 29.89 in 15.0 mi ENE 2.3 mph - N/A   Scattered Clouds
3:00 AM 46.4 °F - 41.0 °F 81% 29.91 in 15.0 mi Calm Calm - N/A   Mostly Cloudy
5:00 AM 47 °F - 43 °F 80% 29.91 in 15 mi Calm Calm - -   Overcast
5:00 AM 46.4 °F - 42.8 °F 87% 29.91 in 15.0 mi Calm Calm - N/A   Overcast
6:30 AM - - - N/A% - 15.0 mi WSW 2.3 mph - N/A Rain Light Rain Showers
8:00 AM 51.8 °F - 42.8 °F 71% 29.96 in 15.0 mi West 2.3 mph - N/A   Mostly Cloudy
9:00 AM 51.8 °F - 44.6 °F 76% 29.97 in 15.0 mi Calm Calm - N/A   Overcast
10:30 AM - - - N/A% - 15.0 mi WSW 2.3 mph - N/A Rain Light Rain Showers
11:00 AM 56 °F - 44 °F 54% 30.00 in 15 mi North 3.5 mph - - Rain Light Rain Showers
11:00 AM 55.4 °F - 44.6 °F 67% 30.00 in 15.0 mi North 3.5 mph - N/A Rain Light Rain Showers
12:00 PM 57.2 °F - 42.8 °F 59% 30.01 in 15.0 mi NNE 9.2 mph - N/A   Overcast
1:00 PM 57.2 °F - 42.8 °F 59% 30.03 in 15.0 mi WNW 2.3 mph - N/A   Overcast
2:00 PM 59.0 °F - 42.8 °F 55% 30.03 in 15.0 mi NNE 5.8 mph - N/A   Mostly Cloudy
4:00 PM 60.8 °F - 41.0 °F 48% 30.05 in 15.0 mi North 19.6 mph - N/A   Mostly Cloudy
5:00 PM 59 °F - 40 °F 37% 30.07 in 15 mi WNW 4.6 mph - -   Partly Cloudy
5:00 PM 59.0 °F - 39.2 °F 48% 30.07 in 15.0 mi WNW 4.6 mph - N/A   Mostly Cloudy
6:00 PM 59.0 °F - 39.2 °F 48% 30.09 in 15.0 mi North 5.8 mph - N/A   Scattered Clouds
7:00 PM 55.4 °F - 41.0 °F 58% 30.10 in 15.0 mi NE 6.9 mph - N/A   Partly Cloudy
8:00 PM 51.8 °F - 41.0 °F 67% 30.13 in 15.0 mi Calm Calm - N/A   Partly Cloudy
10:00 PM 46.4 °F - 39.2 °F 76% 30.19 in 15.0 mi Calm Calm - N/A   Clear
11:00 PM 45 °F - 38 °F 67% 30.20 in 15 mi Calm Calm - -  
11:00 PM 44.6 °F - 37.4 °F 76% 30.20 in 15.0 mi Calm Calm - N/A   Clear